This is the latest recevied weather packets stored in our database for station/object N7WSS. If no packets are shown the sender has not sent any weather packets the latest 10 day(s).
| Time | Temp. | Humidity | Pressure | Rain* | Wind** | Luminosity | Snow |
|---|---|---|---|---|---|---|---|
| 1788309686 | 32.22° C | 42% | 1012.9 hPa | 0 mm | - | - | - |
| 1788309382 | 32.78° C | 41% | 1012.8 hPa | 0 mm | - | - | - |
| 1788309077 | 32.78° C | 42% | 1012.8 hPa | 0 mm | - | - | - |
| 1788308773 | 32.78° C | 42% | 1013 hPa | 0 mm | - | - | - |
| 1788308468 | 32.78° C | 41% | 1012.8 hPa | 0 mm | - | - | - |
| 1788308162 | 32.78° C | 42% | 1013 hPa | 0 mm | - | - | - |
| 1788307857 | 33.33° C | 41% | 1012.9 hPa | 0 mm | - | - | - |
| 1788307552 | 33.33° C | 40% | 1012.7 hPa | 0 mm | - | - | - |
| 1788307248 | 33.33° C | 41% | 1012.9 hPa | 0 mm | - | - | - |
| 1788306947 | 33.33° C | 41% | 1013 hPa | 0 mm | - | - | - |
| 1788306643 | 33.89° C | 39% | 1013.1 hPa | 0 mm | - | - | - |
| 1788306341 | 33.89° C | 39% | 1013 hPa | 0 mm | - | - | - |
| 1788306037 | 33.33° C | 39% | 1013.2 hPa | 0 mm | - | - | - |
| 1788305737 | 33.33° C | 38% | 1013 hPa | 0 mm | - | - | - |
| 1788305433 | 33.89° C | 39% | 1013.2 hPa | 0 mm | - | - | - |
| 1788305128 | 33.89° C | 36% | 1013.2 hPa | 0 mm | - | - | - |
| 1788304823 | 33.89° C | 35% | 1013.2 hPa | 0 mm | - | - | - |
| 1788304520 | 33.33° C | 36% | 1013.2 hPa | 0 mm | - | - | - |
| 1788304216 | 33.89° C | 35% | 1013.5 hPa | 0 mm | - | - | - |
| 1788303915 | 33.33° C | 37% | 1013.5 hPa | 0 mm | - | - | - |
| 1788303611 | 33.33° C | 37% | 1013.5 hPa | 0 mm | - | - | - |
| 1788303306 | 34.44° C | 35% | 1013.5 hPa | 0 mm | - | - | - |
| 1788303000 | 33.89° C | 36% | 1013.5 hPa | 0 mm | - | - | - |
| 1788302696 | 33.89° C | 36% | 1013.3 hPa | 0 mm | - | - | - |
| 1788302392 | 33.89° C | 37% | 1013.1 hPa | 0 mm | - | - | - |
* Rain latest hour (hover to see other rain measurements)
** Current wind speed in m/s (hover to see current wind gust speed)